CW0637 Weather Reports


time (UTC)temp
F
wind
direction
speed
knots
gust
knots
rain 1hr
in
rain 24hr
in
rain mn
in
humidity
%
barometer
mb
20260505214207 75 130 6.1 13.0 0.00 0.00 0.00 59 1016.4
20260505213708 75 168 5.2 13.0 0.00 0.00 0.00 59 1016.5
20260505213206 75 145 5.2 10.4 0.00 0.00 0.00 60 1016.4
20260505212709 75 217 6.1 8.7 0.00 0.00 0.00 60 1016.5
20260505212207 75 142 7.0 11.3 0.00 0.00 0.00 59 1016.4
20260505211707 75 171 6.1 12.2 0.00 0.00 0.00 59 1016.5
20260505211206 75 156 6.1 13.9 0.00 0.00 0.00 57 1016.6
20260505210707 76 153 7.0 11.3 0.00 0.00 0.00 59 1016.6
20260505210207 76 162 4.3 10.4 0.00 0.00 0.00 58 1016.5
20260505205708 76 225 6.1 13.9 0.00 0.00 0.00 58 1016.5
20260505203706 76 187 7.8 13.0 0.00 0.00 0.00 57 1016.6
20260505203207 76 147 5.2 13.0 0.00 0.00 0.00 58 1016.7
20260505202708 76 153 7.8 13.9 0.00 0.00 0.00 59 1016.6
20260505202208 75 165 7.8 13.9 0.00 0.00 0.00 56 1016.5
20260505201707 76 181 9.6 13.9 0.00 0.00 0.00 56 1016.7
20260505201206 76 163 8.7 14.8 0.00 0.00 0.00 57 1016.6
20260505200707 76 184 6.1 14.8 0.00 0.00 0.00 57 1016.7
20260505200207 76 140 8.7 13.0 0.00 0.00 0.00 55 1016.8
20260505195706 76 198 7.0 13.0 0.00 0.00 0.00 54 1016.8
20260505195207 76 216 8.7 13.0 0.00 0.00 0.00 57 1017.0
20260505194706 76 132 10.4 17.4 0.00 0.00 0.00 56 1016.9
20260505194207 77 136 7.0 14.8 0.00 0.00 0.00 56 1016.8
20260505193706 77 142 6.1 10.4 0.00 0.00 0.00 55 1016.8
20260505193207 77 172 6.1 11.3 0.00 0.00 0.00 56 1017.0
20260505192708 76 148 6.1 13.0 0.00 0.00 0.00 56 1017.1
20260505192206 76 120 7.0 13.0 0.00 0.00 0.00 56 1017.2
20260505191706 76 231 5.2 13.0 0.00 0.00 0.00 57 1017.3
20260505191208 77 160 3.5 11.3 0.00 0.00 0.00 57 1017.4
20260505190709 77 138 5.2 8.7 0.00 0.00 0.00 56 1017.5
20260505190206 76 176 7.8 13.9 0.00 0.00 0.00 56 1017.5
20260505185707 77 159 7.8 13.0 0.00 0.00 0.00 54 1017.5
20260505185206 77 151 6.1 13.0 0.00 0.00 0.00 55 1017.6
20260505184706 77 197 7.0 13.9 0.00 0.00 0.00 55 1017.5
20260505184207 77 173 5.2 8.7 0.00 0.00 0.00 55 1017.4
20260505183206 77 216 5.2 8.7 0.00 0.00 0.00 55 1017.4
20260505182708 77 206 7.8 13.0 0.00 0.00 0.00 55 1017.4
20260505182206 77 171 8.7 12.2 0.00 0.00 0.00 54 1017.4
20260505181207 76 150 5.2 13.9 0.00 0.00 0.00 56 1017.5
20260505180707 77 155 6.1 13.0 0.00 0.00 0.00 54 1017.6
20260505180206 76 148 6.1 12.2 0.00 0.00 0.00 56 1017.5
20260505175706 76 150 7.8 12.2 0.00 0.00 0.00 54 1017.6
20260505175206 76 140 7.8 11.3 0.00 0.00 0.00 55 1017.6
20260505174718 77 137 7.0 11.3 0.00 0.00 0.00 54 1017.8
20260505174206 77 238 5.2 7.8 0.00 0.00 0.00 56 1017.9
20260505173710 76 158 7.0 11.3 0.00 0.00 0.00 54 1017.9
20260505172206 76 165 7.0 13.9 0.00 0.00 0.00 57 1018.0
20260505171707 76 161 8.7 13.0 0.00 0.00 0.00 56 1018.1
20260505171208 76 150 5.2 14.8 0.00 0.00 0.00 57 1018.1
20260505170707 76 154 7.8 12.2 0.00 0.00 0.00 55 1018.1
20260505170206 76 146 5.2 14.8 0.00 0.00 0.00 55 1018.1
20260505165706 76 148 6.1 14.8 0.00 0.00 0.00 57 1018.2
20260505165207 76 186 7.0 12.2 0.00 0.00 0.00 55 1018.2
20260505164707 76 152 5.2 12.2 0.00 0.00 0.00 56 1018.3
20260505164207 76 141 6.1 13.0 0.00 0.00 0.00 56 1018.3
20260505163207 77 142 5.2 12.2 0.00 0.00 0.00 54 1018.4
20260505162708 77 157 4.3 11.3 0.00 0.00 0.00 56 1018.3
20260505162208 76 194 5.2 7.0 0.00 0.00 0.00 59 1018.4
20260505161206 75 239 6.1 11.3 0.00 0.00 0.00 60 1018.6
20260505160707 75 173 5.2 12.2 0.00 0.00 0.00 59 1018.6
20260505160206 75 159 6.1 12.2 0.00 0.00 0.00 58 1018.7
20260505153208 75 176 5.2 8.7 0.00 0.00 0.00 58 1018.6
20260505152709 75 194 2.6 8.7 0.00 0.00 0.00 59 1018.6
20260505151706 75 219 4.3 7.8 0.00 0.00 0.00 59 1018.7
20260505150708 75 218 5.2 8.7 0.00 0.00 0.00 58 1018.5
20260505150206 75 147 6.1 7.8 0.00 0.00 0.00 57 1018.6
20260505140207 73 237 4.3 7.8 0.00 0.00 0.00 65 1018.4
20260505130207 70 255 2.6 5.2 0.00 0.00 0.00 74 1018.4
20260505124706 68 223 1.7 4.3 0.00 0.00 0.00 79 1018.3
20260505123707 66 252 1.7 2.6 0.00 0.00 0.00 83 1018.3
20260505123206 65 217 0.0 0.0 0.00 0.00 0.00 87 1018.3
20260505121707 62 262 0.0 0.0 0.00 0.00 0.00 95 1018.3
20260505120207 57 257 0.0 0.0 0.00 0.00 0.00 95 1018.2
20260505115207 53 257 0.0 0.0 0.00 0.00 0.00 95 1018.1
20260505114207 51 257 0.0 0.0 0.00 0.00 0.00 94 1018.1
20260505113707 50 257 0.0 0.0 0.00 0.00 0.00 94 1018.0
20260505113206 49 257 0.0 0.0 0.00 0.00 0.00 93 1018.0
20260505112709 48 257 0.0 0.0 0.00 0.00 0.00 93 1017.9
20260505112207 48 257 0.0 0.0 0.00 0.00 0.00 93 1017.9
20260505111206 47 257 0.0 0.0 0.00 0.00 0.00 93 1017.7
20260505110706 47 256 0.0 0.0 0.00 0.00 0.00 93 1017.6
20260505102207 47 256 0.0 0.0 0.00 0.00 0.00 92 1017.1
20260505101706 47 256 0.0 0.0 0.00 0.00 0.00 92 1017.1
20260505101206 47 256 0.0 0.0 0.00 0.00 0.00 92 1017.0
20260505100706 46 256 0.0 0.0 0.00 0.00 0.00 91 1017.0
20260505095706 47 256 0.0 0.0 0.00 0.00 0.00 91 1016.9
20260505094706 47 256 0.0 0.0 0.00 0.00 0.00 92 1016.8
20260505094206 47 256 0.0 0.0 0.00 0.00 0.00 92 1016.8
20260505093706 47 256 0.0 0.0 0.00 0.00 0.00 92 1016.8
20260505093206 47 256 0.0 0.0 0.00 0.00 0.00 91 1016.8
20260505092708 47 256 0.0 0.0 0.00 0.00 0.00 91 1016.7
20260505092207 47 256 0.0 0.0 0.00 0.00 0.00 91 1016.6
20260505091707 47 256 0.0 0.0 0.00 0.00 0.00 91 1016.6
20260505091206 47 256 0.0 0.0 0.00 0.00 0.00 91 1016.6
20260505090206 47 256 0.0 0.0 0.00 0.00 0.00 91 1016.7
20260505085707 48 256 0.0 0.0 0.00 0.00 0.00 91 1016.6
20260505085206 47 256 0.0 0.0 0.00 0.00 0.00 91 1016.5
20260505084206 47 256 0.0 0.0 0.00 0.00 0.00 91 1016.4
20260505083707 48 256 0.0 0.0 0.00 0.00 0.00 90 1016.4
20260505083207 48 256 0.0 0.0 0.00 0.00 0.00 90 1016.4
20260505082708 48 256 0.0 0.0 0.00 0.00 0.00 91 1016.4
20260505082207 48 256 0.0 0.0 0.00 0.00 0.00 91 1016.3
20260505081707 48 256 0.0 0.0 0.00 0.00 0.00 91 1016.4
20260505081208 48 256 0.0 0.0 0.00 0.00 0.00 91 1016.3
20260505080707 49 256 0.0 0.0 0.00 0.00 0.00 91 1016.3
20260505080206 49 256 0.0 0.0 0.00 0.00 0.00 91 1016.3
20260505075706 49 256 0.0 0.0 0.00 0.00 0.00 91 1016.4
20260505075206 49 256 0.0 0.0 0.00 0.00 0.00 90 1016.3
20260505074706 49 256 0.0 0.0 0.00 0.00 0.00 90 1016.4
20260505074206 49 256 0.0 0.0 0.00 0.00 0.00 90 1016.4
20260505073708 49 256 0.0 0.0 0.00 0.00 0.00 90 1016.4
20260505073206 49 256 0.0 0.0 0.00 0.00 0.00 90 1016.4
20260505072708 49 256 0.0 0.0 0.00 0.00 0.00 90 1016.3
20260505072207 49 256 0.0 0.0 0.00 0.00 0.00 91 1016.3
20260505071706 49 256 0.0 0.0 0.00 0.00 0.00 90 1016.3
20260505071206 49 256 0.0 0.0 0.00 0.00 0.00 90 1016.3
20260505070706 50 256 0.0 0.0 0.00 0.00 0.00 90 1016.3
20260505070206 50 256 0.0 0.0 0.00 0.00 0.00 90 1016.3
20260505065706 50 256 0.0 0.0 0.00 0.00 0.00 91 1016.4
20260505065207 50 256 0.0 0.0 0.00 0.00 0.00 91 1016.5
20260505064706 49 256 0.0 0.0 0.00 0.00 0.00 90 1016.4
20260505064206 49 256 0.0 0.0 0.00 0.00 0.00 90 1016.4
20260505063706 49 256 0.0 0.0 0.00 0.00 0.00 89 1016.4
20260505063206 50 256 0.0 0.0 0.00 0.00 0.00 89 1016.4
20260505062708 50 256 0.0 0.0 0.00 0.00 0.00 89 1016.5
20260505062206 50 256 0.0 0.0 0.00 0.00 0.00 89 1016.6
20260505061706 50 256 0.0 0.0 0.00 0.00 0.00 89 1016.6
20260505061206 50 256 0.0 0.0 0.00 0.00 0.00 89 1016.7
20260505060206 50 256 0.0 0.0 0.00 0.00 0.00 88 1016.7
20260505055706 51 256 0.0 0.0 0.00 0.00 0.00 88 1016.8
20260505055207 51 256 0.0 0.0 0.00 0.00 0.00 88 1016.8
20260505054706 51 256 0.0 0.0 0.00 0.00 0.00 88 1016.8
20260505054206 51 256 0.0 0.0 0.00 0.00 0.00 88 1016.9
20260505053709 52 256 0.0 0.0 0.00 0.00 0.00 88 1016.9
20260505053207 52 256 0.0 0.0 0.00 0.01 0.00 87 1017.0
20260505052708 52 256 0.0 0.0 0.00 0.01 0.00 88 1017.0
20260505051706 53 256 0.0 0.0 0.00 0.01 0.00 87 1017.2
20260505050706 53 256 0.0 0.0 0.00 0.01 0.00 88 1017.2
20260505050207 53 256 0.0 0.0 0.00 0.01 0.00 88 1017.3
20260505041706 54 256 0.0 0.0 0.00 0.01 0.00 83 1017.3
20260505041206 54 256 0.0 0.0 0.00 0.01 0.00 84 1017.2
20260505040205 55 256 0.0 0.0 0.00 0.01 0.00 83 1017.1
20260505035706 55 256 0.0 0.0 0.00 0.01 0.01 83 1017.1
20260505035207 56 256 0.0 0.0 0.00 0.01 0.01 81 1017.2
20260505034706 56 256 0.0 0.9 0.00 0.01 0.01 80 1017.3
20260505033707 58 256 0.0 0.0 0.00 0.01 0.01 78 1017.3
20260505033206 58 256 0.0 0.0 0.00 0.01 0.01 77 1017.2
20260505032708 59 256 0.0 0.0 0.00 0.01 0.01 78 1017.2
20260505032207 60 256 0.0 0.0 0.00 0.01 0.01 77 1017.2
20260505031707 60 256 0.0 0.0 0.00 0.01 0.01 77 1017.2
20260505031206 61 256 0.0 0.0 0.00 0.01 0.01 78 1017.2
20260505025706 62 256 0.0 0.0 0.00 0.01 0.01 74 1017.2
20260505025206 63 256 0.0 0.0 0.00 0.01 0.01 73 1017.2
20260505024706 63 256 0.0 0.0 0.00 0.01 0.01 74 1017.2
20260505024206 63 256 0.0 0.0 0.00 0.01 0.01 71 1017.2
20260505023706 64 256 0.0 0.0 0.00 0.01 0.01 70 1017.2
20260505023205 64 256 0.0 0.9 0.00 0.01 0.01 70 1017.3
20260505022207 64 256 0.9 1.7 0.00 0.01 0.01 68 1017.3
20260505021706 64 155 0.0 1.7 0.00 0.01 0.01 69 1017.3
20260505021207 65 222 0.0 0.0 0.00 0.01 0.01 69 1017.3
20260505020706 65 222 0.0 1.7 0.00 0.01 0.01 68 1017.4
20260505020205 65 237 0.0 1.7 0.00 0.01 0.01 68 1017.3
20260505015705 66 238 0.0 0.0 0.00 0.01 0.01 66 1017.2
20260505015206 66 127 0.0 0.9 0.00 0.01 0.01 67 1017.2
20260505014706 66 202 0.0 5.2 0.00 0.01 0.01 66 1017.1
20260505014206 66 247 0.9 5.2 0.00 0.01 0.01 65 1017.1
20260505013719 66 252 1.7 4.3 0.00 0.01 0.01 65 1017.0
20260505013207 67 248 1.7 4.3 0.00 0.01 0.01 65 1017.0
20260505012709 67 247 0.9 2.6 0.00 0.01 0.01 65 1016.9
20260505012207 67 245 0.9 2.6 0.00 0.01 0.01 65 1016.9
20260505011707 67 247 0.0 1.7 0.00 0.01 0.01 65 1016.8
20260505011208 67 236 0.9 2.6 0.00 0.01 0.01 64 1016.7
20260505010707 67 242 0.9 2.6 0.00 0.01 0.01 65 1016.7
20260505010207 68 230 0.9 2.6 0.00 0.01 0.01 64 1016.7
20260505005708 68 228 1.7 5.2 0.00 0.01 0.01 63 1016.7
20260505005208 68 207 0.9 1.7 0.00 0.01 0.01 63 1016.7
20260505004708 68 175 0.9 1.7 0.00 0.01 0.01 62 1016.6
20260505004207 68 187 2.6 5.2 0.00 0.01 0.01 62 1016.6
20260505003708 69 167 0.9 4.3 0.00 0.01 0.01 61 1016.5
20260505003208 69 150 0.9 5.2 0.00 0.01 0.01 61 1016.4
20260505002709 69 169 2.6 7.0 0.00 0.01 0.01 60 1016.4
20260505002208 69 222 2.6 5.2 0.00 0.01 0.01 60 1016.3
20260505001708 69 226 2.6 6.1 0.00 0.01 0.01 60 1016.3
20260505001208 69 234 2.6 7.8 0.00 0.01 0.01 59 1016.4
20260504235708 70 236 4.3 6.1 0.00 0.01 0.01 58 1016.3
20260504234707 70 225 5.2 8.7 0.00 0.01 0.01 58 1016.2
20260504234207 70 169 1.7 7.0 0.00 0.01 0.01 59 1016.2
20260504233207 70 209 5.2 11.3 0.00 0.01 0.01 57 1016.0
20260504231708 71 236 4.3 7.8 0.00 0.01 0.01 58 1016.2
20260504231207 71 239 4.3 7.8 0.00 0.01 0.01 57 1016.2
20260504230707 71 190 4.3 12.2 0.00 0.01 0.01 56 1016.1
20260504230207 71 160 4.3 12.2 0.00 0.01 0.01 58 1016.0
20260504225707 71 124 4.3 10.4 0.00 0.01 0.01 56 1016.1
20260504224715 72 219 5.2 11.3 0.00 0.01 0.01 55 1016.0
20260504224208 72 175 7.0 14.8 0.00 0.01 0.01 55 1016.0
20260504223708 72 208 5.2 10.4 0.00 0.01 0.01 57 1016.1
20260504223207 72 224 5.2 13.9 0.00 0.01 0.01 54 1016.0
20260504222710 72 247 6.1 13.0 0.00 0.01 0.01 53 1016.0
20260504222207 72 231 5.2 12.2 0.00 0.01 0.01 51 1016.0
20260504221708 73 190 5.2 11.3 0.00 0.01 0.01 52 1016.1
20260504220707 73 220 5.2 10.4 0.00 0.01 0.01 50 1016.0
20260504220207 73 231 4.3 13.0 0.00 0.01 0.01 52 1016.0
20260504215708 73 146 6.1 12.2 0.00 0.01 0.01 51 1016.0
20260504215209 73 141 8.7 18.2 0.00 0.01 0.01 50 1015.9